Home   Weather   West Bromwich   Past weeks

Flag for United Kingdom Past Weather in West Bromwich, England, United Kingdom — Yesterday and Last 2 Weeks

59 °F

Partly sunny.

Feels Like: 59 °F
Forecast: 49 / 59 °F
Wind: 5 mph from Southwest

Location: Birmingham / Airport

Current Time: Oct 28, 2016 at 5:18:11 PM

Latest Report: Oct 28, 2016 at 4:20 PM

Visibility: N/A

Pressure: 30.54 "Hg

Humidity: 82%

Dew Point: 54 °F

Location of West BromwichLocation

Past Weather in West Bromwich — Graph


West Bromwich Temperature Yesterday

Maximum temperature yesterday: 59 °F (at 2:20 PM)
Minimum temperature yesterday: 48 °F (at 12:50 AM)
Average temperature yesterday: 54 °F

High & Low Weather Summary for the Past Weeks

High61 °F (Oct 16, 1:20 PM)100% (Oct 14, 8:50 AM)30.54 "Hg (Oct 14, 8:50 AM)
Low39 °F (Oct 23, 2:50 AM)54% (Oct 18, 1:50 PM)29.62 "Hg (Oct 15, 6:50 AM)
Average51 °F87%30.06 "Hg
* Reported Oct 13 4:20 PM — Oct 28 4:20 PM, West Bromwich, Weather by CustomWeather, © 2016

Note: Actual official high and low records may vary slightly from our data, if they occured in-between our weather recording intervals... More about our weather records


West Bromwich Weather History for the Previous 24 Hours

Scroll right to see more
Time TempWeatherWind HumidityBarometerVisibility
4:20 PM
Fri, Oct 28
59 °FPartly sunny.5 mph82%30.54 "HgN/A
3:50 PM59 °FOvercast.5 mph82%30.54 "HgN/A
3:20 PM59 °FOvercast.6 mph82%30.54 "HgN/A
2:50 PM59 °FOvercast.5 mph82%30.51 "HgN/A
2:20 PM59 °FOvercast.6 mph82%30.51 "HgN/A
1:50 PM59 °FOvercast.6 mph82%30.51 "HgN/A
1:20 PM59 °FPartly sunny.7 mph82%30.51 "HgN/A
12:50 PM59 °FPartly sunny.6 mph82%30.51 "HgN/A
12:20 PM59 °FPartly sunny.7 mph82%30.51 "HgN/A
11:50 AM57 °FPartly sunny.8 mph88%30.51 "HgN/A
11:20 AM57 °FPartly sunny.7 mph88%30.51 "HgN/A
10:50 AM57 °FPartly sunny.7 mph82%30.51 "HgN/A
10:20 AM57 °FOvercast.7 mph82%30.51 "HgN/A
9:50 AM55 °FOvercast.7 mph88%30.51 "HgN/A
9:20 AM55 °FPartly sunny.3 mph88%30.48 "HgN/A
8:50 AM55 °FPartly sunny.5 mph88%30.48 "HgN/A
8:20 AM54 °FScattered clouds.5 mph94%30.45 "HgN/A
7:50 AM55 °FPassing clouds.3 mph88%30.45 "HgN/A
7:20 AM55 °FPassing clouds.6 mph88%30.42 "HgN/A
6:50 AM55 °FPassing clouds.7 mph82%30.42 "HgN/A
6:20 AM55 °FClear.10 mph82%30.42 "Hg10 mi
5:50 AM55 °FClear.8 mph82%30.42 "Hg10 mi
5:20 AM55 °FPassing clouds.10 mph82%30.39 "HgN/A
4:50 AM55 °FPassing clouds.10 mph82%30.39 "HgN/A
4:20 AM55 °FPassing clouds.9 mph82%30.39 "HgN/A
3:50 AM55 °FClear.9 mph82%30.42 "Hg10 mi
3:20 AM54 °FClear.8 mph88%30.42 "Hg10 mi
2:50 AM55 °FClear.10 mph82%30.42 "Hg10 mi
2:20 AM55 °FClear.12 mph82%30.42 "Hg10 mi
1:50 AM55 °FClear.13 mph82%30.42 "Hg10 mi
1:20 AM55 °FPassing clouds.7 mph88%30.39 "HgN/A
12:50 AM55 °FPassing clouds.8 mph88%30.42 "HgN/A
12:20 AM55 °FPassing clouds.8 mph88%30.42 "HgN/A
11:50 PM
Thu, Oct 27
55 °FPassing clouds.7 mph88%30.39 "HgN/A
11:20 PM55 °FPassing clouds.7 mph88%30.39 "HgN/A
10:50 PM55 °FPassing clouds.9 mph88%30.39 "HgN/A
10:20 PM55 °FPassing clouds.9 mph82%30.39 "HgN/A
9:50 PM55 °FPassing clouds.8 mph82%30.39 "HgN/A
9:20 PM55 °FPassing clouds.8 mph82%30.39 "HgN/A
8:50 PM57 °FPassing clouds.8 mph77%30.39 "HgN/A
8:20 PM57 °FPassing clouds.7 mph77%30.39 "HgN/A
7:50 PM57 °FPassing clouds.9 mph77%30.39 "HgN/A
7:20 PM57 °FOvercast.12 mph77%30.39 "HgN/A
6:50 PM57 °FOvercast.9 mph77%30.39 "HgN/A
6:20 PM57 °FOvercast.8 mph77%30.39 "HgN/A
5:50 PM57 °FPassing clouds.8 mph72%30.39 "HgN/A
5:20 PM57 °FPartly sunny.8 mph72%30.36 "HgN/A
Weather by CustomWeather, © 2016

See weather overviewHow to use our weather pages